{"data":{"norad_id":66309,"intl_designator":"2025-248S","name":"TOMORROW-S9","alt_names":[],"object_type":"PAYLOAD","status":"ACTIVE","operator":null,"country":"US","launch_date":"2025-11-02","launch_site_code":"AFETR","launch_vehicle":null,"mission":null,"orbit_class":"UNKNOWN","rcs_meters":null,"size_class":null,"mass_kg":null,"dimensions":null,"purposes":[],"wikipedia_slug":null,"has_3d_model":false,"image_url":null,"decayed_at":null,"tle_current":{"epoch":"2026-05-25T00:10:44.289120Z","epoch_age_seconds":68430,"freshness":"FRESH","line1":"1 66309U 25248S   26145.00745705  .00004018  00000+0  19443-3 0  9997","line2":"2 66309  45.4034 246.0318 0004593 282.6055  77.4318 15.20279752 30989","mean_motion":15.20279752,"eccentricity":0.0004593,"inclination_deg":45.4034,"raan_deg":246.0318,"arg_perigee_deg":282.6055,"mean_anomaly_deg":77.4318,"bstar":0.00019443,"rev_number":3098,"period_min":94.719409247253,"perigee_km":501.83466826258,"apogee_km":508.15751432024,"semimajor_km":6883.1330912914,"source":"CELESTRAK","updated_at":"2026-05-25T13:38:06.132794Z"}}}